LiveATC.Net - Listen to live air traffic control over the Internet!


ICAO: KMKL  IATA: MKL   Airport: Mc Kellar-Sipes Regional Airport
City: Jackson   State/Province: Tennessee
Country: United States   Continent: North America
KMKL METAR Weather: KMKL 040153Z AUTO 18007KT 10SM FEW120 22/20 A2991 RMK AO2 RAE23 SLP124 P0006 T02170200
KMKL Flight Activity (FlightAware)
KMKL Airport Info   (iFlightPlanner)
KMKL VFR Sectional Chart   (iFlightPlanner) 
KMKL IFR Low Chart   (iFlightPlanner) 

KMKL Tower (Air Race Classic Start)
Feed Status: DOWN
Last heard on: 2019-06-20 14:39:02 (349 days 12 hours 20 minutes ago)
Archive Access: KMKL Tower (Air Race Classic Start)
FacilityFrequency
Jackson Tower127.150

NOTICE

Unauthorized use prohibited. See LiveATC.net Terms of Service


Airport/ARTCC Code
Frequency Search
(e.g., 124.400, 128.75)
Site-wide search
 


Browse Feeds
Top 50 Feeds
Coverage Map
Bad Weather Areas

LiveATC FAQ
Offer LiveATC feed
Contact LiveATC.net
Press Inquiries

LiveATC on iPhone
LiveATC on Android

Windows Phone
Windows 8/10

LiveATC Mobile
(Mobile browser)

ATC Audio Archives
Interesting Recordings

LiveATC Forums


Home Page
About LiveATC.net
Make a Donation
Terms of Use
Privacy Policy

Canadian Air Freqs

AIRMETs/SIGMETs

FAA Airport Status
Nat'l Airspace Status
Arrival Demand Charts


Server Software By:
Icecast.org
Liquidsoap